TimeCST,TemperatureF,Dew PointF,Humidity,Sea Level PressureIn,VisibilityMPH,Wind Direction,Wind SpeedMPH,Gust SpeedMPH,PrecipitationIn,Events,Conditions,WindDirDegrees,DateUTC
12:15 AM,39.2,22.6,52,29.98,10.0,NNW,11.5,-,N/A,,Clear,330,2014-01-13 06:15:00
12:35 AM,38.3,23.7,56,29.99,10.0,NW,11.5,-,N/A,,Clear,320,2014-01-13 06:35:00
12:55 AM,37.4,23.0,56,30.00,10.0,NW,9.2,-,N/A,,Clear,320,2014-01-13 06:55:00
1:15 AM,36.0,22.6,58,30.00,10.0,NW,8.1,-,N/A,,Clear,310,2014-01-13 07:15:00
1:35 AM,33.4,21.7,62,30.00,10.0,NW,6.9,-,N/A,,Clear,310,2014-01-13 07:35:00
1:55 AM,31.1,20.3,64,30.01,10.0,WNW,9.2,-,N/A,,Clear,290,2014-01-13 07:55:00
2:15 AM,31.6,21.2,65,30.01,10.0,WNW,9.2,-,N/A,,Clear,290,2014-01-13 08:15:00
2:35 AM,30.2,20.8,68,30.02,10.0,WNW,11.5,-,N/A,,Clear,290,2014-01-13 08:35:00
2:55 AM,28.9,21.0,72,30.02,10.0,West,10.4,-,N/A,,Clear,280,2014-01-13 08:55:00
3:15 AM,27.1,20.5,76,30.02,10.0,WNW,9.2,-,N/A,,Clear,290,2014-01-13 09:15:00
3:35 AM,29.3,20.8,71,30.02,10.0,WNW,12.7,-,N/A,,Clear,290,2014-01-13 09:35:00
3:55 AM,28.9,19.4,68,30.03,10.0,WNW,11.5,-,N/A,,Clear,290,2014-01-13 09:55:00
4:15 AM,26.6,18.9,73,30.03,10.0,WNW,10.4,-,N/A,,Clear,290,2014-01-13 10:15:00
4:35 AM,28.0,17.6,65,30.04,10.0,West,13.8,-,N/A,,Clear,280,2014-01-13 10:35:00
4:55 AM,28.0,15.6,60,30.05,10.0,WNW,12.7,-,N/A,,Clear,290,2014-01-13 10:55:00
5:15 AM,27.9,14.5,57,30.06,10.0,WNW,11.5,-,N/A,,Clear,290,2014-01-13 11:15:00
5:35 AM,26.6,13.6,58,30.06,10.0,WNW,11.5,-,N/A,,Clear,290,2014-01-13 11:35:00
5:55 AM,26.2,13.1,58,30.06,10.0,WNW,12.7,-,N/A,,Clear,290,2014-01-13 11:55:00
6:15 AM,27.1,12.2,53,30.06,10.0,West,12.7,-,N/A,,Clear,280,2014-01-13 12:15:00
6:35 AM,26.4,11.5,53,30.07,10.0,West,12.7,-,N/A,,Clear,280,2014-01-13 12:35:00
6:55 AM,25.9,11.1,54,30.06,10.0,West,10.4,-,N/A,,Clear,280,2014-01-13 12:55:00
7:15 AM,25.3,10.4,53,30.07,10.0,West,9.2,-,N/A,,Clear,270,2014-01-13 13:15:00
7:35 AM,24.4,9.7,53,30.06,10.0,West,10.4,-,N/A,,Clear,270,2014-01-13 13:35:00
7:55 AM,24.8,9.0,51,30.07,10.0,West,11.5,-,N/A,,Clear,270,2014-01-13 13:55:00
8:15 AM,24.8,8.6,50,30.07,10.0,West,10.4,-,N/A,,Clear,270,2014-01-13 14:15:00
8:35 AM,26.4,9.1,48,30.08,10.0,West,10.4,-,N/A,,Clear,270,2014-01-13 14:35:00
8:55 AM,29.3,9.3,43,30.09,10.0,West,11.5,-,N/A,,Clear,270,2014-01-13 14:55:00
9:15 AM,31.8,10.0,40,30.10,10.0,West,11.5,-,N/A,,Clear,280,2014-01-13 15:15:00
9:35 AM,34.9,10.6,37,30.11,10.0,West,12.7,-,N/A,,Clear,280,2014-01-13 15:35:00
9:55 AM,37.4,11.3,34,30.11,10.0,West,13.8,-,N/A,,Clear,270,2014-01-13 15:55:00
10:15 AM,39.7,11.1,31,30.11,10.0,West,11.5,-,N/A,,Clear,270,2014-01-13 16:15:00
10:35 AM,42.6,10.0,26,30.11,10.0,West,13.8,-,N/A,,Clear,270,2014-01-13 16:35:00
10:55 AM,44.1,9.0,24,30.11,10.0,West,12.7,-,N/A,,Clear,270,2014-01-13 16:55:00
11:15 AM,45.5,6.4,20,30.11,10.0,West,13.8,18.4,N/A,,Clear,280,2014-01-13 17:15:00
11:35 AM,46.4,6.6,20,30.11,10.0,West,13.8,-,N/A,,Clear,280,2014-01-13 17:35:00
11:55 AM,46.9,5.4,18,30.09,10.0,West,10.4,17.3,N/A,,Clear,280,2014-01-13 17:55:00
12:15 PM,47.8,5.0,17,30.08,10.0,West,9.2,21.9,N/A,,Clear,280,2014-01-13 18:15:00
12:35 PM,48.7,6.6,18,30.08,10.0,West,13.8,-,N/A,,Clear,260,2014-01-13 18:35:00
12:55 PM,50.2,6.1,17,30.07,10.0,West,11.5,19.6,N/A,,Clear,280,2014-01-13 18:55:00
1:15 PM,49.8,4.6,16,30.05,10.0,West,11.5,19.6,N/A,,Clear,280,2014-01-13 19:15:00
1:35 PM,51.1,5.0,15,30.04,10.0,WNW,10.4,20.7,N/A,,Clear,300,2014-01-13 19:35:00
1:55 PM,51.1,5.0,15,30.03,10.0,West,12.7,18.4,N/A,,Clear,270,2014-01-13 19:55:00
2:15 PM,51.6,4.6,15,30.03,10.0,West,10.4,18.4,N/A,,Clear,270,2014-01-13 20:15:00
2:35 PM,52.3,4.8,15,30.03,10.0,WNW,16.1,20.7,N/A,,Clear,290,2014-01-13 20:35:00
2:55 PM,52.7,4.3,14,30.02,10.0,West,15.0,18.4,N/A,,Clear,280,2014-01-13 20:55:00
3:15 PM,52.9,4.1,14,30.02,10.0,West,11.5,18.4,N/A,,Clear,270,2014-01-13 21:15:00
3:35 PM,53.2,4.1,14,30.02,10.0,West,10.4,16.1,N/A,,Clear,270,2014-01-13 21:35:00
3:55 PM,53.6,4.5,14,30.01,10.0,West,9.2,-,N/A,,Clear,280,2014-01-13 21:55:00
4:15 PM,53.4,4.8,14,30.01,10.0,West,12.7,17.3,N/A,,Clear,260,2014-01-13 22:15:00
4:35 PM,53.6,5.0,14,30.01,10.0,WSW,8.1,-,N/A,,Clear,250,2014-01-13 22:35:00
4:55 PM,52.7,5.0,15,30.00,10.0,WSW,6.9,-,N/A,,Clear,240,2014-01-13 22:55:00
5:15 PM,51.1,5.9,16,30.01,10.0,WSW,6.9,-,N/A,,Clear,240,2014-01-13 23:15:00
5:35 PM,47.7,7.0,19,30.00,10.0,SW,8.1,-,N/A,,Clear,220,2014-01-13 23:35:00
5:55 PM,43.3,7.3,23,30.00,10.0,SSW,8.1,-,N/A,,Clear,210,2014-01-13 23:55:00
6:15 PM,40.5,6.6,25,30.00,10.0,SSW,9.2,-,N/A,,Clear,210,2014-01-14 00:15:00
6:35 PM,38.3,6.3,26,30.00,10.0,SSW,10.4,-,N/A,,Clear,210,2014-01-14 00:35:00
6:55 PM,36.5,5.9,28,30.00,10.0,SSW,9.2,-,N/A,,Clear,210,2014-01-14 00:55:00
7:15 PM,35.1,5.9,30,30.00,10.0,SW,9.2,-,N/A,,Clear,220,2014-01-14 01:15:00
7:35 PM,33.8,6.3,32,30.01,10.0,SW,9.2,-,N/A,,Clear,220,2014-01-14 01:35:00
7:55 PM,33.3,6.4,32,30.01,10.0,SSW,11.5,-,N/A,,Clear,210,2014-01-14 01:55:00
8:15 PM,33.3,6.6,33,30.01,10.0,SSW,9.2,-,N/A,,Clear,210,2014-01-14 02:15:00
8:35 PM,32.5,6.6,34,30.00,10.0,SSW,10.4,-,N/A,,Clear,210,2014-01-14 02:35:00
8:55 PM,32.9,6.3,33,30.01,10.0,SSW,9.2,-,N/A,,Clear,210,2014-01-14 02:55:00
9:15 PM,31.1,5.9,35,30.01,10.0,SSW,9.2,-,N/A,,Clear,210,2014-01-14 03:15:00
9:35 PM,29.8,6.3,37,30.01,10.0,SSW,10.4,-,N/A,,Clear,210,2014-01-14 03:35:00
9:55 PM,31.1,6.8,36,30.01,10.0,SW,8.1,-,N/A,,Clear,220,2014-01-14 03:55:00
10:15 PM,32.0,7.2,35,30.00,10.0,SW,10.4,-,N/A,,Clear,220,2014-01-14 04:15:00
10:35 PM,31.3,7.2,36,30.00,10.0,SW,11.5,-,N/A,,Clear,220,2014-01-14 04:35:00
10:55 PM,31.8,6.8,35,30.00,10.0,SW,11.5,-,N/A,,Clear,220,2014-01-14 04:55:00
11:15 PM,30.6,6.8,37,30.00,10.0,SW,10.4,-,N/A,,Clear,220,2014-01-14 05:15:00
11:35 PM,31.6,6.8,35,29.98,10.0,SW,11.5,-,N/A,,Clear,220,2014-01-14 05:35:00
11:55 PM,32.5,6.8,34,29.98,10.0,SW,11.5,-,N/A,,Clear,220,2014-01-14 05:55:00